Upington, South Africa

12:53 AM SAST on May 26, 2017 (GMT +0200)
Upington

Weather History for FAUP - November, 2011

Change the Weather History Date:

Wednesday, November 23, 2011

  Actual Average Record
Temperature  
Mean Temperature 70 °F -  
Max Temperature 85 °F 91 °F 104 °F (1998)
Min Temperature 54 °F 62 °F 50 °F (2007)
Cooling Degree Days 4    
Growing Degree Days 20 (Base 50)    
Moisture  
Dew Point 32 °F    
Average Humidity 28    
Maximum Humidity 51    
Minimum Humidity 4    
Precipitation  
Precipitation 0.00 in 0.02 in - ()
Sea Level Pressure  
Sea Level Pressure 29.99 in    
Wind  
Wind Speed 10 mph ()    
Max Wind Speed 22 mph    
Max Gust Speed -    
Visibility 6.2 miles    
Events      
Averages and records for this station are not official NWS values.
T = Trace of Precipitation, MM = Missing Value Source: Averaged Metar Reports

Daily Weather History Graph

Daily Weather History Graph

Search for Another Location

Airport or City:

Trip Planner

Search our weather history database for the weather conditions in past years. The results will help you decide how hot, cold, wet, or windy it might be!

Date:

Astronomy

Nov. 23, 2011 Rise Set
Actual Time 5:30 AM SAST 7:11 PM SAST
Civil Twilight 5:04 AM SAST 7:37 PM SAST
Nautical Twilight 4:33 AM SAST 8:09 PM SAST
Astronomical Twilight 4:01 AM SAST 8:41 PM SAST
Moon 3:41 AM SAST (11/23) 5:22 PM SAST (11/23)
Length of Visible Light 14h 32m
Length of Day
13h 40m
Waning Crescent, 5% of the Moon is Illuminated
Nov 23
Waning Crescent
Nov 25
New
Dec 2
First Quarter
Dec 10
Full
Dec 18
Last Quarter

Hourly Weather History & Observations

Time (SAST) Temp. Dew Point Humidity Pressure Visibility Wind Dir Wind Speed Gust Speed Precip Events Conditions
12:00 AM 66.2 °F 28.4 °F 24% 29.98 in - SSW 11.5 mph - N/A   Unknown
1:00 AM 62.6 °F 32.0 °F 32% 29.95 in - SSW 4.6 mph - N/A   Clear
2:00 AM 59 °F 32 °F 24%  in 25 mi SW 6.9 mph - -  
2:00 AM 57.2 °F 32.0 °F 38% 29.95 in - SW 6.9 mph - N/A   Clear
3:00 AM 57.2 °F 32.0 °F 38% 29.95 in - SW 5.8 mph - N/A   Clear
4:00 AM 57.2 °F 35.6 °F 44% 29.98 in - SW 6.9 mph - N/A   Clear
5:00 AM 56 °F 38 °F 39%  in 25 mi SW 8.1 mph - -  
5:00 AM 55.4 °F 37.4 °F 51% 29.98 in - SW 8.1 mph - N/A   Clear
6:00 AM 55.4 °F 37.4 °F 51% 29.98 in - SW 10.4 mph - N/A   Clear
6:37 AM 59.0 °F 39.2 °F 48% 30.01 in - SSW 9.2 mph - N/A   Clear
7:00 AM 57.2 °F 37.4 °F 48% 30.01 in - SSW 10.4 mph - N/A   Clear
8:00 AM 61 °F 40 °F 34%  in 25 mi SW 11.5 mph - -   Scattered Clouds
8:00 AM 60.8 °F 39.2 °F 45% 30.01 in 6.2 mi SW 11.5 mph - N/A   Partly Cloudy
8:41 AM 66.2 °F 39.2 °F 37% 30.04 in - SSW 10.4 mph - N/A   Clear
9:00 AM 64.4 °F 37.4 °F 37% 30.04 in - SW 10.4 mph - N/A   Clear
10:00 AM 68.0 °F 39.2 °F 35% 30.04 in 6.2 mi SSW 10.4 mph - N/A   Partly Cloudy
10:27 AM 69.8 °F 37.4 °F 31% 30.06 in 6.2 mi SW 9.2 mph - N/A   Partly Cloudy
11:00 AM 74 °F 38 °F 17%  in 25 mi SW 11.5 mph - -   Scattered Clouds
11:00 AM 73.4 °F 37.4 °F 27% 30.04 in 6.2 mi SW 10.4 mph - N/A   Partly Cloudy
12:00 PM 77.0 °F 33.8 °F 21% 30.01 in 6.2 mi SSW 11.5 mph - N/A   Partly Cloudy
1:00 PM 78.8 °F 28.4 °F 16% 30.01 in 6.2 mi SSW 11.5 mph - N/A   Partly Cloudy
1:36 PM 82.4 °F 24.8 °F 12% 29.98 in 6.2 mi South 12.7 mph - N/A   Partly Cloudy
2:00 PM 82 °F 20 °F 4%  in 25 mi SSW 15.0 mph - -   Scattered Clouds
2:00 PM 80.6 °F 21.2 °F 11% 29.98 in 6.2 mi SSW 13.8 mph - N/A   Partly Cloudy
3:00 PM 84.2 °F 26.6 °F 12% 29.95 in 6.2 mi South 15.0 mph - N/A   Partly Cloudy
4:00 PM 82.4 °F 23.0 °F 11% 29.92 in 6.2 mi SSW 16.1 mph - N/A   Partly Cloudy
5:00 PM 84 °F 22 °F 4%  in 25 mi SW 18.4 mph - -   Scattered Clouds
5:00 PM 82.4 °F 23.0 °F 11% 29.89 in 6.2 mi SW 17.3 mph - N/A   Partly Cloudy
6:00 PM 78.8 °F 17.6 °F 10% 29.92 in 6.2 mi SW 19.6 mph - N/A   Partly Cloudy
7:00 PM 75.2 °F 19.4 °F 12% 29.95 in - SSW 19.6 mph - N/A   Clear
8:00 PM 71 °F 31 °F 13%  in 25 mi SSW 21.9 mph - -  
8:00 PM 69.8 °F 32.0 °F 25% 29.98 in - SSW 21.9 mph - N/A   Clear
9:00 PM 66.2 °F 33.8 °F 30% 30.01 in - SSW 19.6 mph - N/A   Unknown
10:00 PM 62.6 °F 33.8 °F 34% 30.06 in - SSW 19.6 mph - N/A   Unknown
11:00 PM 60 °F 37 °F 30%  in - SSW 13.8 mph - -  
11:00 PM 59.0 °F 35.6 °F 42% 30.06 in - SSW 13.8 mph - N/A   Unknown